Location: Maiden
(35.5760°N, 81.2120°W)
Time: 03:28:11
(UTC-04:00)

Cosmos 2263 - Pass Details

Date: 02 August 2020
Orbit: 830 x 867 km, 70.9° (Epoch: 12 August)

Event Time Altitude Azimuth Distance (km) Brightness Sun altitude
Rises 20:50:56 0° 338° (NNW) 3,452 8.2 -5.2°
Reaches altitude 10° 20:53:24 10° 338° (NNW) 2,513 7.5 -5.7°
Maximum altitude 20:59:12 89° 246° (WSW) 871 4.3 -6.7°
Drops below altitude 10° 21:04:58 10° 161° (SSE) 2,495 6.2 -7.8°
Sets 21:07:24 0° 161° (SSE) 3,426 6.9 -8.2°
Enters shadow 21:07:26 - 161° (SSE) 3,436 6.9 -8.2°
